Weather observations for the past three days for
Randolph Air Force Base
Imperial (Metric)
Date Time (cdt) Wind (mph) Vis. (mi.) Weather Sky Cond. Temperature (ºF) Relative Humidity Wind Chill (°F) Heat Index (°F) Pressure Precipitation (in)
Air Dwpt 6 hour altimeter (in) sea level (mb) 1 hr 3 hr 6 hr
Max. Min.
13 15:55 N 3 10.00 Fair CLR 97.5 66 36% 101 29.87 1010.5
13 14:55 E 5 10.00 Partly Cloudy FEW095 FEW170 SCT200 93.4 68.2 44% 98 29.89 1011.2
13 13:55 W 5 10.00 Partly Cloudy FEW041 FEW100 SCT180 93.6 71.4 49% 101 29.91 1011.9
13 12:55 E 3 10.00 Mostly Cloudy FEW040 BKN055 BKN090 BKN190 91.6 70.9 91.6 76.6 51% 98 29.93 1012.6
13 11:55 E 3 10.00 Partly Cloudy FEW037 SCT050 88.2 72.5 60% 95 29.94 1013.0
13 10:55 S 3 10.00 A Few Clouds FEW200 86.7 72.5 63% 94 29.94 1013.0
13 09:55 S 6 10.00 Overcast SCT015 BKN023 OVC060 83.8 74.1 73% 91 29.94 1013.0
13 08:55 Calm 10.00 A Few Clouds FEW060 82 74.8 79% 89 29.93 1012.6
13 07:55 Calm 10.00 Mostly Cloudy BKN015 78.1 74.1 88% 81 29.92 1012.3
13 06:55 Calm 10.00 Mostly Cloudy FEW017 BKN060 76.8 73.6 77.7 75.7 90% 78 29.9 1011.6
13 05:55 Calm 10.00 Mostly Cloudy SCT060 BKN100 77 73.8 90% 78 29.89 1011.3
13 04:55 Calm 10.00 Mostly Cloudy BKN060 76.1 72.9 90% 76 29.88 1010.9
13 03:55 NE 3 10.00 A Few Clouds FEW070 76.5 73.6 91% 77 29.88 1010.9
13 02:55 Calm 10.00 Mostly Cloudy BKN070 BKN085 77 73.4 89% 78 29.88 1011.0
13 01:55 Calm 10.00 Partly Cloudy SCT080 76.3 72.7 89% 77 29.89 1011.4
13 00:55 Calm 10.00 Fair CLR 77.7 73.4 89.4 77.7 87% 80 29.9 1011.6
12 23:55 Calm 10.00 Fair CLR 78.8 73.2 83% 82 29.91 1011.9
12 22:55 SE 5 10.00 Fair CLR 79.3 72.1 79% 83 29.9 1011.6
12 21:55 SE 6 10.00 Fair CLR 80.8 71.6 74% 85 29.88 1010.9
12 20:55 SE 12 10.00 Fair CLR 84.2 73.8 71% 91 29.87 1010.6
12 18:55 E 7 10.00 Fair CLR 88.2 72.5 91.6 77.9 60% 95 29.86 1010.3 0.02
12 17:55 E 8 10.00 Partly Cloudy FEW090 FEW110 SCT140 88.7 74.8 64% 99 29.87 1010.6
12 16:55 NE 8 10.00 Mostly Cloudy BKN080 88.7 72 58% 96 29.88 1010.9
12 15:55 E 13 10.00 A Few Clouds FEW060 88.3 74.1 63% 97 29.89 1011.3 0.02
12 14:55 E 9 10.00 Mostly Cloudy FEW090 SCT130 BKN170 BKN190 84.2 76.1 77% 93 29.89 1011.3 0.02
12 13:55 NE 10 G 21 9.00 Light Rain FEW013 FEW021 SCT028 BKN035 OVC047 81 76.3 86% 87 29.92 1012.4
12 12:55 Calm 10.00 Mostly Cloudy FEW041 SCT050 SCT130 BKN160 91.6 69.6 92.3 73.9 49% 97 29.92 1012.3
12 11:55 Calm 10.00 Mostly Cloudy BKN036 BKN043 90.7 71.1 53% 97 29.93 1012.6
12 10:55 SE 6 10.00 Partly Cloudy FEW030 FEW120 SCT140 SCT200 86.5 72 62% 93 29.94 1013.0
12 09:55 Calm 10.00 A Few Clouds FEW021 84.2 72.9 69% 91 29.94 1013.0
12 08:55 NE 5 10.00 Fair CLR 79.5 73 81% 83 29.93 1012.7
12 07:55 N 3 10.00 Partly Cloudy SCT019 SCT100 77.2 72.7 86% 79 29.92 1012.4
12 06:55 Calm 10.00 A Few Clouds FEW016 73.9 71.1 76.3 73.8 91% 29.91 1012.1
12 05:55 Calm 10.00 Mostly Cloudy BKN015 74.3 71.4 91% 29.9 1011.7
12 04:55 N 3 10.00 A Few Clouds FEW015 74.5 71.2 90% 29.89 1011.2
12 03:55 NE 3 10.00 Mostly Cloudy FEW017 BKN090 75.2 71.6 89% 75 29.88 1010.9
12 02:55 N 3 10.00 A Few Clouds FEW100 75.4 71.6 88% 75 29.88 1010.9
12 01:55 NE 5 10.00 Mostly Cloudy FEW012 BKN090 BKN120 76.1 71.6 86% 77 29.89 1011.2
12 00:55 NE 5 10.00 Fair CLR 75.7 71.2 79.7 75.7 86% 76 29.88 1010.9
11 23:55 NE 3 10.00 Fair CLR 76.1 71.6 86% 77 29.88 1010.9
11 22:55 E 6 10.00 Mostly Cloudy BKN100 76.6 71.8 85% 78 29.88 1010.9
11 21:55 NE 8 10.00 A Few Clouds FEW100 77.4 71.4 82% 79 29.85 1010.0
11 19:55 NE 12 10.00 Fair CLR 78.4 69.8 75% 81 29.8 1008.3
11 18:55 NE 13 G 20 10.00 Partly Cloudy SCT150 77.9 71.2 99 77.9 80% 80 29.81 1008.7
11 17:55 NE 17 G 29 10.00 Partly Cloudy SCT075 SCT160 80.4 69.6 70% 84 29.81 1008.7
11 16:55 W 6 10.00 Fair CLR 96.6 64.4 35% 99 29.77 1007.1
11 15:55 Calm 10.00 Partly Cloudy FEW060 SCT210 98.1 64.8 34% 101 29.78 1007.4
11 14:55 NE 6 10.00 Partly Cloudy SCT055 94.3 66.9 41% 98 29.8 1008.1
11 13:55 W 3 10.00 Mostly Cloudy FEW090 FEW120 SCT150 BKN200 94.3 67.6 42% 99 29.83 1009.2
11 12:55 Calm 10.00 Partly Cloudy FEW044 SCT190 92.5 68.5 92.8 74.8 46% 97 29.85 1009.8
11 11:55 Calm 10.00 A Few Clouds FEW035 89.2 70.9 55% 95 29.88 1010.9
11 10:55 SW 5 10.00 Mostly Cloudy BKN028 88 71.8 59% 95 29.89 1011.2
11 09:55 SE 5 10.00 Partly Cloudy SCT020 84.6 72.3 67% 91 29.89 1011.2
11 08:55 Calm 10.00 Fair CLR 81.9 74.3 78% 88 29.87 1010.6
11 07:55 Calm 10.00 Fair CLR 77.2 72.7 86% 79 29.87 1010.6
11 04:55 Calm 10.00 Fair CLR 75.2 71.4 88% 75 29.84 1009.5
11 03:55 Calm 10.00 A Few Clouds FEW018 75.4 71.2 87% 75 29.84 1009.5
11 02:55 N 3 10.00 Fair CLR 76.5 71.2 84% 77 29.85 1009.9
11 01:55 E 3 10.00 Fair CLR 76.1 70.5 83% 77 29.84 1009.6
11 00:55 NE 5 10.00 Fair CLR 78.3 69.3 94.1 77.7 74% 81 29.85 1009.9
10 23:55 E 5 10.00 Fair CLR 79.5 68.9 70% 82 29.85 1009.9
10 22:55 E 3 10.00 Fair CLR 81.3 68.4 65% 84 29.83 1009.3
10 21:55 NE 3 10.00 Fair CLR 83.3 68.4 61% 87 29.81 1008.7
10 20:55 E 9 10.00 Fair CLR 86 67.8 55% 89 29.78 1007.6
10 19:55 NE 7 10.00 Fair CLR 91.2 66.2 44% 94 29.77 1007.2
10 18:55 E 8 10.00 Fair CLR 91.2 68.7 95.9 84.6 48% 96 29.76 1006.8
10 17:55 E 3 10.00 Mostly Cloudy BKN080 93.6 66.9 42% 97 29.75 1006.5
10 16:55 Calm 10.00 Partly Cloudy SCT055 93.7 65.7 40% 97 29.76 1006.8
Date Time (cdt) Wind (mph) Vis. (mi.) Weather Sky Cond. Air Dwpt Max. Min. Relative Humidity Wind Chill (°F) Heat Index (°F) altimeter (in) sea level (mb) 1 hr 3 hr 6 hr
6 hour
Temperature (ºF) Pressure Precipitation (in)